カタログに戻る

TURKSAT 1C

運用中通信GEO
NORAD 23949·PAYLOAD·🇹🇷 Turkey

打ち上げ Jul 9, 1996 から Guiana Space Centre

Loading…

TLE

最新Source: Space-Track

元期: Sep 13, 2026, 17:52 UTC

1 23949U 96040B   26256.74493458 -.00000364  00000-0  00000-0 0  9995
2 23949  12.1923  29.4535 0007883 178.6240 179.5231  1.00303103110561

AllMySatでTURKSAT 1Cをリアルタイム追跡

Download on the App Store